Warning: Javascript must be enabled to use all the features on this page!


Page Loading - Please Wait...

Click to hideNews Bulletins
  • Notice of planned maintenance to underlying USGS network September 24-26, 2021: During this maintenance period users may experience intermittent periods of inaccessibility or delayed delivery of hydrologic data to the USGS National Water Information System (NWIS). Please email gs-w_support_nwisweb@usgs.gov with any concerns regarding impacts to data delivery.
  • Explore the NEW USGS National Water Dashboard interactive map to access real-time water data from over 13,500 stations nationwide.
  • Full News RSS icon

Peak Streamflow for New Jersey

Click to hide state-specific text

ALL DATA ARE AT LOCAL TIME


USGS 01440200 Delaware River near Delaware Water Gap Pa

Warren County, New Jersey
Hydrologic Unit Code 02040104
Latitude  41°00'48", Longitude  75°05'10" NAD83
Drainage area 3,850  square miles
Gage datum 293.64 feet above NGVD29
Output formats
Table
Graph
Tab-separated file
peakfq (watstore) format
Reselect output format
Water
Year
Date Gage
Height
(feet)
Stream-
flow
(cfs)
1955 1955-08-19 37.40 260,0005,7
1965 1965-02-09 11.06 25,3005
1966 1966-03-07 10.40 22,0005
1967 1967-04-03 11.77 28,9005
1968 1968-05-31 13.85 48,7005
1969 1969-07-29 15.41 50,0005
1970 1970-04-03 15.11 59,8005
1971 1971-02-28 11.84 32,2005
1972 1972-06-24 17.31 64,2005
1973 1973-06-30 23.82 103,0005
1974 1973-12-22 20.43 83,0005
1975 1975-02-25 18.06 69,4005
1976 1976-01-28 19.71 78,9005
1977 1977-03-14 20.86 85,6005
1978 1978-01-10 22.99 74,1005
1979 1979-01-26   73,0005,9
1980 1980-03-22 18.69 75,2005
1981 1981-02-12 20.04 82,8005
1982 1982-02-05 16.14 51,0005,9
1983 1983-04-17 20.97 88,1005
1984 1984-05-30 21.77 97,3005
1985 1985-09-28 17.93 74,4005
1986 1986-03-16 24.00 110,0005
1987 1987-04-05 18.33 76,9005
1988 1988-02-03 12.481 36,6005
1989 1989-05-07 16.895 67,9005
1990 1989-10-21 16.35 64,5005
1991 1990-11-11 16.10 62,9005
1992 1991-11-24 11.58 30,5005
1993 1993-04-02 19.89 86,3005
1994 1994-04-14 16.46 63,3005
1995 1995-03-10 11.75 28,7005
1996 1996-01-20 28.401 155,0005
2002 2002-05-14 11.74 31,6005
2003 2003-03-22 16.46 67,1005
2004 2004-09-19 30.32 176,0005
2005 2005-04-03 33.25 215,0005
2006 2006-06-29 33.87 225,0005
2007 2007-04-17 19.63 82,1005
2008 2008-03-09 19.61 81,9005
2009 2008-12-12 16.96 64,8005
2010 2010-01-26 15.26 53,9005
2011 2011-09-09 24.94 128,0005
2012 2012-05-16 14.07 43,0005
2013 2013-06-15 14.41 45,2005
2014 2014-05-17 14.49 45,7005
2015 2015-04-11 11.90 30,7005
2016 2016-02-26 14.68 46,8005
2017 2017-04-07 14.80 47,6005
2018 2018-01-24    
2019 2019-04-16 13.98  
?
  Peak Gage-Height Qualification Codes.
?
  Peak Streamflow Qualification Codes.